Location: Newark
(40.2000°N, 15.6833°E)
Time: 21:58:29
(UTC+00:00)

ISS - Visible Passes

Search period start: 05 December 2019 00:00
Search period end: 15 December 2019 00:00
Orbit: 412 x 421 km, 51.6° (Epoch: 05 December)

Date Brightness Start Highest point End Pass type
(mag) Time Alt. Az. Time Alt. Az. Time Alt. Az.
05 Dec -1.9 16:40:54 10° NNW 16:43:07 16° NNE 16:43:34 16° NNE visible
06 Dec -1.9 17:28:40 10° NW 17:30:12 23° NNW 17:30:12 23° NNW visible
07 Dec -2.6 16:40:21 10° NW 16:43:16 26° NNE 16:44:04 24° NE visible
07 Dec -0.3 18:16:54 10° WNW 18:16:59 11° WNW 18:16:59 11° WNW visible
08 Dec -3.2 17:28:18 10° NW 17:31:02 55° WNW 17:31:02 55° WNW visible
09 Dec -3.7 16:39:51 10° NW 16:43:10 59° NNE 16:45:19 20° ESE visible
09 Dec -0.4 18:17:34 10° W 18:18:18 13° WSW 18:18:18 13° WSW visible
10 Dec -1.6 17:28:22 10° WNW 17:31:14 26° SW 17:32:59 17° S visible
11 Dec -2.7 16:39:36 10° WNW 16:42:50 47° SW 16:46:03 10° SSE visible
13 Dec -0.6 16:40:02 10° W 16:42:13 16° SW 16:44:24 10° S visible
